• In Italy
  • List of Countries
  • For 7 days
  • Water Temperature
  • Satellite Maps
  • Weather Map
  • Weather Widgets
  • user-avatar
    Login

    Hourly Weather Bali

    Today, 12 December, Tuesday

    Time Temperature Precipitation Wind Pressure Humidity
    00:00 +27°C° 0 mm 2 mps 748 mmHg 92%
    01:00 +27°C° 0 mm 2 mps 747 mmHg 92%
    02:00 +27°C° 0 mm 3 mps 747 mmHg 93%
    03:00 +26°C° 0.3 mm 2 mps 747 mmHg 93%
    04:00 +26°C° 0.3 mm 2 mps 747 mmHg 93%
    05:00 +26°C° 0.3 mm 2 mps 747 mmHg 93%
    06:00 +27°C° 0.6 mm 2 mps 747 mmHg 90%
    07:00 +28°C° 0.6 mm 2 mps 748 mmHg 87%
    08:00 +30°C° 0 mm 1 mps 748 mmHg 79%
    09:00 +30°C° 1.4 mm 1 mps 748 mmHg 79%
    10:00 +30°C° 1.4 mm 2 mps 748 mmHg 78%
    11:00 +31°C° 1.4 mm 2 mps 748 mmHg 78%
    12:00 +31°C° 1.4 mm 2 mps 747 mmHg 79%
    13:00 +30°C° 1.4 mm 2 mps 747 mmHg 79%
    14:00 +30°C° 0 mm 2 mps 747 mmHg 81%
    15:00 +30°C° 1.6 mm 2 mps 746 mmHg 83%
    16:00 +29°C° 1.6 mm 2 mps 746 mmHg 85%
    17:00 +29°C° 1.6 mm 2 mps 746 mmHg 87%
    18:00 +28°C° 0.8 mm 3 mps 746 mmHg 88%
    19:00 +27°C° 0.8 mm 3 mps 747 mmHg 89%
    20:00 +27°C° 0.8 mm 3 mps 747 mmHg 90%
    21:00 +27°C° 0.3 mm 3 mps 747 mmHg 90%
    22:00 +27°C° 0.3 mm 3 mps 748 mmHg 90%
    23:00 +27°C° 0.3 mm 3 mps 748 mmHg 89%

    Tomorrow, 13 December, Wednesday

    Time Temperature Precipitation Wind Pressure Humidity
    00:00 +27°C° 0.2 mm 2 mps 748 mmHg 89%
    01:00 +27°C° 0.2 mm 2 mps 747 mmHg 90%
    02:00 +26°C° 0.2 mm 2 mps 747 mmHg 90%
    03:00 +26°C° 0.2 mm 2 mps 747 mmHg 90%
    04:00 +26°C° 0.2 mm 2 mps 747 mmHg 91%
    05:00 +26°C° 0.2 mm 2 mps 747 mmHg 91%
    06:00 +27°C° 0 mm 2 mps 747 mmHg 88%
    07:00 +28°C° 0 mm 2 mps 747 mmHg 85%
    08:00 +28°C° 0 mm 2 mps 748 mmHg 82%
    09:00 +30°C° 0.2 mm 2 mps 748 mmHg 77%
    10:00 +31°C° 0.2 mm 2 mps 748 mmHg 73%
    11:00 +32°C° 0.2 mm 2 mps 748 mmHg 68%
    12:00 +32°C° 0.2 mm 2 mps 747 mmHg 69%
    13:00 +32°C° 0.2 mm 2 mps 747 mmHg 69%
    14:00 +33°C° 0.2 mm 3 mps 747 mmHg 69%
    15:00 +31°C° 0.6 mm 2 mps 746 mmHg 73%
    16:00 +31°C° 0.6 mm 2 mps 746 mmHg 76%
    17:00 +30°C° 0.6 mm 2 mps 746 mmHg 80%
    18:00 +29°C° 0 mm 2 mps 746 mmHg 83%
    19:00 +28°C° 0 mm 2 mps 747 mmHg 86%
    20:00 +28°C° 0 mm 1 mps 747 mmHg 89%
    21:00 +28°C° 0 mm 1 mps 747 mmHg 90%
    22:00 +27°C° 0 mm 1 mps 747 mmHg 90%
    23:00 +27°C° 0 mm 1 mps 748 mmHg 91%

    Day after tomorrow, 14 December, Thursday

    Time Temperature Precipitation Wind Pressure Humidity
    00:00 +27°C° 0 mm 1 mps 747 mmHg 91%
    01:00 +27°C° 0 mm 2 mps 747 mmHg 92%
    02:00 +27°C° 0 mm 2 mps 746 mmHg 92%
    03:00 +27°C° 0 mm 2 mps 746 mmHg 92%
    04:00 +27°C° 0 mm 2 mps 746 mmHg 92%
    05:00 +26°C° 0 mm 2 mps 746 mmHg 92%
    06:00 +27°C° 0 mm 2 mps 747 mmHg 89%
    07:00 +28°C° 0 mm 1 mps 747 mmHg 86%
    08:00 +29°C° 0 mm 1 mps 748 mmHg 82%
    09:00 +30°C° 0 mm 2 mps 748 mmHg 77%
    10:00 +31°C° 0 mm 2 mps 748 mmHg 71%
    11:00 +32°C° 0 mm 2 mps 748 mmHg 65%
    12:00 +32°C° 0 mm 2 mps 747 mmHg 65%
    13:00 +32°C° 0 mm 2 mps 747 mmHg 65%
    14:00 +34°C° 0 mm 3 mps 746 mmHg 65%
    15:00 +33°C° 0 mm 3 mps 746 mmHg 68%
    16:00 +31°C° 0 mm 3 mps 746 mmHg 72%
    17:00 +31°C° 0 mm 3 mps 745 mmHg 75%
    18:00 +30°C° 0 mm 2 mps 746 mmHg 80%
    19:00 +29°C° 0 mm 2 mps 747 mmHg 85%
    20:00 +28°C° 0 mm 2 mps 747 mmHg 91%
    21:00 +28°C° 0.2 mm 1 mps 748 mmHg 91%
    22:00 +27°C° 0.2 mm 1 mps 748 mmHg 91%
    23:00 +27°C° 0.2 mm 1 mps 748 mmHg 92%

    15 December, Friday

    Time Temperature Precipitation Wind Pressure Humidity
    00:00 +27°C° 0.1 mm 1 mps 748 mmHg 92%
    01:00 +27°C° 0.1 mm 1 mps 747 mmHg 92%
    02:00 +27°C° 0.1 mm 1 mps 747 mmHg 92%
    03:00 +27°C° 0 mm 1 mps 747 mmHg 92%
    04:00 +26°C° 0 mm 1 mps 746 mmHg 92%
    05:00 +26°C° 0 mm 1 mps 746 mmHg 92%
    06:00 +27°C° 0 mm 1 mps 747 mmHg 88%
    07:00 +28°C° 0 mm 1 mps 747 mmHg 84%
    08:00 +29°C° 0 mm 1 mps 747 mmHg 79%
    09:00 +31°C° 0 mm 2 mps 748 mmHg 72%
    10:00 +32°C° 0 mm 2 mps 748 mmHg 66%
    11:00 +34°C° 0 mm 2 mps 748 mmHg 59%
    12:00 +35°C° 0 mm 2 mps 747 mmHg 59%
    13:00 +35°C° 0 mm 2 mps 746 mmHg 59%
    14:00 +35°C° 0 mm 3 mps 746 mmHg 59%
    15:00 +34°C° 0 mm 3 mps 746 mmHg 63%
    16:00 +33°C° 0 mm 3 mps 746 mmHg 67%
    17:00 +31°C° 0 mm 3 mps 745 mmHg 72%
    18:00 +30°C° 0.2 mm 2 mps 746 mmHg 77%
    19:00 +29°C° 0.2 mm 2 mps 747 mmHg 83%
    20:00 +27°C° 0.2 mm 1 mps 747 mmHg 88%
    21:00 +27°C° 0.9 mm 1 mps 748 mmHg 89%
    22:00 +27°C° 0.9 mm 1 mps 748 mmHg 89%
    23:00 +25°C° 0.9 mm 0 mps 748 mmHg 89%

    16 December, Saturday

    Time Temperature Precipitation Wind Pressure Humidity
    00:00 +25°C° 0.6 mm 0 mps 748 mmHg 90%
    01:00 +25°C° 0.6 mm 0 mps 747 mmHg 90%
    02:00 +25°C° 0.6 mm 0 mps 747 mmHg 90%
    03:00 +26°C° 0.2 mm 1 mps 747 mmHg 90%
    04:00 +26°C° 0.2 mm 1 mps 747 mmHg 90%
    05:00 +26°C° 0.2 mm 1 mps 747 mmHg 90%
    06:00 +27°C° 0 mm 1 mps 747 mmHg 86%
    07:00 +28°C° 0 mm 1 mps 748 mmHg 82%
    08:00 +29°C° 0 mm 1 mps 749 mmHg 79%
    09:00 +30°C° 0 mm 2 mps 749 mmHg 72%
    10:00 +32°C° 0 mm 2 mps 749 mmHg 65%
    11:00 +34°C° 0 mm 2 mps 749 mmHg 59%
    12:00 +34°C° 0 mm 2 mps 748 mmHg 59%
    13:00 +34°C° 0 mm 3 mps 747 mmHg 59%
    14:00 +34°C° 0 mm 3 mps 747 mmHg 59%
    15:00 +33°C° 0 mm 3 mps 747 mmHg 62%
    16:00 +31°C° 0 mm 3 mps 746 mmHg 66%
    17:00 +31°C° 0 mm 3 mps 746 mmHg 70%
    18:00 +30°C° 0 mm 2 mps 747 mmHg 74%
    19:00 +29°C° 0 mm 2 mps 747 mmHg 78%
    20:00 +28°C° 0 mm 1 mps 748 mmHg 82%
    21:00 +28°C° 0 mm 1 mps 748 mmHg 82%
    22:00 +27°C° 0 mm 1 mps 748 mmHg 83%
    23:00 +27°C° 0 mm 1 mps 748 mmHg 83%

    17 December, Sunday

    Time Temperature Precipitation Wind Pressure Humidity
    00:00 +27°C° 0.3 mm 1 mps 748 mmHg 84%
    01:00 +27°C° 0.3 mm 1 mps 748 mmHg 85%
    02:00 +27°C° 0.3 mm 1 mps 747 mmHg 85%
    03:00 +27°C° 0.1 mm 1 mps 747 mmHg 86%
    04:00 +27°C° 0.1 mm 1 mps 747 mmHg 86%
    05:00 +27°C° 0.1 mm 1 mps 747 mmHg 86%
    06:00 +27°C° 0 mm 1 mps 747 mmHg 84%
    07:00 +27°C° 0 mm 1 mps 748 mmHg 82%
    08:00 +28°C° 0 mm 1 mps 748 mmHg 79%
    09:00 +29°C° 0.1 mm 1 mps 748 mmHg 75%
    10:00 +30°C° 0.1 mm 1 mps 748 mmHg 70%
    11:00 +31°C° 0.1 mm 1 mps 748 mmHg 66%
    12:00 +31°C° 0 mm 1 mps 748 mmHg 65%
    13:00 +31°C° 0 mm 1 mps 747 mmHg 64%
    14:00 +31°C° 0 mm 2 mps 747 mmHg 63%
    15:00 +31°C° 0.4 mm 2 mps 746 mmHg 65%
    16:00 +30°C° 0.4 mm 2 mps 746 mmHg 68%
    17:00 +30°C° 0.4 mm 2 mps 746 mmHg 70%
    18:00 +29°C° 0.3 mm 2 mps 747 mmHg 74%
    19:00 +28°C° 0.3 mm 2 mps 747 mmHg 79%
    20:00 +27°C° 0.3 mm 2 mps 748 mmHg 83%
    21:00 +27°C° 0.5 mm 2 mps 748 mmHg 83%
    22:00 +27°C° 0.5 mm 2 mps 748 mmHg 83%
    23:00 +27°C° 0.5 mm 2 mps 748 mmHg 83%
    Show more